Home > Time Zones > World Clock > Weather > U.S.A. > Nome > Past weeks

Flag for U.S.A. Weather past 2 weeks in Nome, Alaska, U.S.A.

Now
47 °F

Overcast.


Feels Like: 47 °F
Forecast: 49 / 54 °F
Wind: No wind

Location: Nome Airport

Current Time: Sep 5, 2015 at 5:26:02 AM

Latest Report: Sep 5, 2015 at 4:53 AM


Visibility: 10 mi

Pressure: 29.88 "Hg

Humidity: 97%

Dew point: 46 °F

Location of NomeLocation

Historic Weather in Nome — Graph

°F

Nome temperature yesterday

Maximum temperature yesterday: 56 °F (at 11:53 AM)
Minimum temperature yesterday: 45 °F (at 8:53 AM)
Average temperature yesterday: 51 °F

Past Weeks' High & Low Weather Summary

 TemperatureHumidityPressure
High58 °F (Aug 26, 3:53 PM)100% (Aug 21, 7:53 AM)30.24 "Hg (Aug 21, 7:53 AM)
Low30 °F (Aug 31, 7:53 AM)61% (Aug 28, 6:53 PM)29.44 "Hg (Aug 26, 4:53 AM)
Average47 °F84%29.88 "Hg
* Reported Aug 21 3:53 AM — Sep 5 3:53 AM, Nome, Weather by CustomWeather, © 2015

Note: Actual official high and low records may vary slightly from our data, if they occured in-between our weather recording intervals... More about our weather records

Advertising

Nome weather history for previous 24 hours

 ConditionsComfort  
Time TempWeatherWind HumidityBarometerVisibility
3:53 AM
Sat, Sep 5
48 °FOvercast.3 mph96%29.87 "Hg10 mi
2:53 AM49 °FOvercast.No wind97%29.86 "Hg10 mi
1:53 AM49 °FPassing clouds.No wind100%29.85 "Hg10 mi
12:53 AM49 °FClear.3 mph97%29.84 "Hg10 mi
11:53 PM
Fri, Sep 4
50 °FPassing clouds.5 mph96%29.83 "Hg10 mi
10:53 PM51 °FScattered clouds.5 mph89%29.82 "Hg10 mi
9:53 PM52 °FMore clouds than sun.7 mph86%29.80 "Hg10 mi
8:53 PM53 °FCloudy.10 mph86%29.80 "Hg10 mi
7:53 PM53 °FCloudy.12 mph89%29.79 "Hg10 mi
6:53 PM52 °FCloudy.16 mph93%29.79 "Hg10 mi
5:53 PM55 °FMore clouds than sun.12 mph83%29.78 "Hg10 mi
4:53 PM53 °FCloudy.15 mph89%29.77 "Hg10 mi
3:53 PM55 °FCloudy.12 mph83%29.76 "Hg10 mi
2:53 PM55 °FMostly cloudy.9 mph87%29.76 "Hg10 mi
1:53 PM55 °FPartly sunny.9 mph87%29.75 "Hg10 mi
12:53 PM55 °FBroken clouds.7 mph80%29.74 "Hg10 mi
11:53 AM56 °FBroken clouds.6 mph72%29.73 "Hg10 mi
10:53 AM52 °FPartly sunny.No wind86%29.73 "Hg10 mi
9:53 AM48 °FPartly sunny.No wind93%29.73 "Hg10 mi
8:53 AM45 °FPartly sunny.No wind97%29.72 "Hg10 mi
7:53 AM47 °FPartly cloudy.No wind93%29.72 "Hg10 mi
6:53 AM49 °FOvercast.No wind93%29.72 "Hg10 mi
5:53 AM50 °FMostly cloudy.8 mph89%29.72 "Hg10 mi
Weather by CustomWeather, © 2015

See weather overviewHow to use our weather pages